STARLINK-3793, 52380

Orbit data source: Space-Track

STARLINK-3793, 52380 is a payload satellite owned by SpaceX/Seattle (US) in LEO that was launched on Fri, 29 Apr 2022 UTC via an FALCON 9 launch vehicle from the Air Force Eastern Test Range (AFETR). Payload-class satellites include a variety of spacecraft equipped with specific instruments for various scientific and technological missions. These include communications satellites like Starlink; space stations such as the ISS; scientific satellites like the Hubble; Earth observation satellites from companies like Planet Labs, Umbra, and HawkEye 360; GPS; miniature CubeSats for education and research; and military/defense satellites.

Loading next visibility...
Identifier
52380, 2022-045BB
Orbit
LEO
Country
Flag of USUS
Related business
Manufacturer
SpaceX/Seattle
Mission
Operational Commercial Communications
Bus & Motor
STARLINK, Unknown motor
Mass
297 kg wet, ~275 kg dry
Launch date (UTC)
2022-04-29 (4 years ago)
Launch vehicle
FALCON 9
Launch site
Air Force Eastern Test Range (AFETR)
Object type
Payload
Rocket body
Debris
Shape & HBR
Box + 1 Pan, 10.1 m
Radar Cross Section
11.087 m², Large (>1 m²)

Expand to show TLE details & history
Last TLE update: 1 day ago

TLE from 1 day ago
0 STARLINK-3793
1 52380U 22045BB  25349.99277115  .00001547  00000-0  11526-3 0  9990
2 52380  53.2158 194.8792 0001652  75.1484 284.9691 15.08844399203428
Epoch: 2025-12-15T23:49Z
TLE epoch observation values (Epoch: 2025-12-15T23:49:35.427Z)
Latitude
-0.00002°
Longitude
112.5982°
Altitude
540.332 km
Speed
7.594 km/s
True Right ascension
12h 59m 31s
True Declination
0° 00' 00"
Sunlit
Object was in daylight at epoch
Visualization orbit readout
Latitude
Unknown
Longitude
Unknown
Altitude
Unknown
Speed
Unknown
Apparent Right ascension
Unknown
Apparent Declination
Unknown
Sunlit
N/A
Visualization observer readout
Local Sidereal Time
23:25:55
Azimuth
Unknown
Elevation
Unknown
Doppler factor
Unknown
Orbital elements
Apogee altitude
541.118 km
Perigee altitude
538.832 km
Semi-major axis
6,918.112 km
Eccentricity
0.00017
Inclination
53.2158°
RAAN
194.8792°
Arg. of periapsis
75.1484°
True anomaly
284.95081°
Mean anomaly
284.9691°
Eccentric anomaly
284.95996°
Mean motion
3.77191 °/min
Orbital period
95.44 mins
BSTAR
0.00011526
Loading maneuver chart data...
Computing Atmospheric mass density...
Loading historical data...
Loading historical data...
Loading historical data...
Loading historical data...
Loading historical data...
Loading historical data...
Loading historical data...

Documentation

Showing up to 5 results
|